Regional Weather Roundup
Issued by NWS

Home | Current Version | Previous Version | Graphics & Text | Print | Product List | Glossary On
Versions: 1 2 3 4 5 6 7 8 9 10 11 12 13 14 15 16 17 18 19 20 21 22 23 24 25 26 27 28 29 30 31 32 33 34 35 36 37 38 39 40 41 42 43 44 45 46 47 48 49 50
000
ASUS43 KOAX 031902
RWRNE

WEATHER ROUNDUP FOR NEBRASKA
NATIONAL WEATHER SERVICE OMAHA NE
200 PM CDT MON AUG 03 2015

NOTES: SATELLITE DATA IS BEING USED TO AUGMENT CLOUD COVER ABOVE
       12000 FEET.
       "FAIR" INDICATES FEW OR NO CLOUDS BELOW 12,000 FEET WITH NO
       SIGNIFICANT WEATHER AND/OR OBSTRUCTIONS TO VISIBILITY.

  * THESE STATIONS DO NOT REPORT WEATHER SUCH AS RAIN...SNOW OR FOG.

NEZ001>004-019>022-054>056-032000-
NEBRASKA PANHANDLE

CITY           SKY/WX    TMP DP  RH WIND       PRES   REMARKS
SCOTTSBLUFF    PTSUNNY   82  58  43 E9        30.01F
ALLIANCE       PTSUNNY   86  58  38 SE13      30.01F
CHADRON        PTSUNNY   84  61  45 SE12      29.98F
KIMBALL        PTSUNNY   90  44  20 S15G21    30.05F
SIDNEY         CLOUDY    91  57  31 S13G18    30.04F
$$

NEZ057>060-069>072-079>082-032000-
SOUTHWEST NEBRASKA

CITY           SKY/WX    TMP DP  RH WIND       PRES   REMARKS
NORTH PLATTE   MOSUNNY   83  68  60 SE13      30.00F
IMPERIAL       CLOUDY    84  62  47 SE10      30.01S
LEXINGTON      MOSUNNY   83  67  59 SE12      30.00S
MCCOOK         CLOUDY    86  68  54 E10       29.98S
OGALLALA       PTSUNNY   84  64  50 SE8       30.00F
$$

NEZ005>010-023>029-035>040-094-032000-
NORTH CENTRAL NEBRASKA

CITY           SKY/WX    TMP DP  RH WIND       PRES   REMARKS
AINSWORTH      SUNNY     81  59  47 E9        30.03F
BROKEN BOW     MOSUNNY   86  60  41 E9G20     30.00F
O`NEILL        SUNNY     81  56  42 NE9       30.02S
ORD            MOSUNNY   83  60  45 NE9       29.99F
THEDFORD       MOSUNNY   84  61  44 SE13G20   30.03S
$$

NEZ041-046>049-061>064-073>077-083>087-032000-
SOUTH CENTRAL NEBRASKA

CITY           SKY/WX    TMP DP  RH WIND       PRES   REMARKS
GRAND ISLAND   MOSUNNY   81  65  58 E8        30.00S
AURORA         MOSUNNY   78  67  68 E10       29.99F
HASTINGS       SUNNY     84  69  60 E8        29.97F
HEBRON         MOSUNNY   84  69  60 E7        29.95S
HOLDREGE       SUNNY     83  67  57 E9        29.99S
KEARNEY *      SUNNY     82  66  57 E8        29.98F
YORK           MOSUNNY   77  68  73 E9        29.99S
$$

NEZ011>018-030>034-042>045-032000-
NORTHEAST NEBRASKA

CITY           SKY/WX    TMP DP  RH WIND       PRES   REMARKS
NORFOLK        SUNNY     79  60  52 SE3       30.00F
ALBION         SUNNY     77  58  52 SE5       30.01S
BLAIR          CLOUDY    75  64  68 CALM      29.98R
COLUMBUS *     SUNNY     79  63  57 SE3       29.99S
FREMONT        PTSUNNY   79  60  53 SE5       29.99S
TEKAMAH        MOSUNNY   80  62  54 CALM      29.97S
WAYNE          SUNNY     78  63  59 E3        30.01S
$$

NEZ050>053-065>068-078-088>093-032000-
SOUTHEAST NEBRASKA

CITY           SKY/WX    TMP DP  RH WIND       PRES   REMARKS
LINCOLN        PTSUNNY   82  65  56 E7        29.98F
OMAHA EPPLEY   CLOUDY    78  64  61 SE7       29.97S
BEATRICE       MOSUNNY   82  71  69 SE10      29.95S
FALLS CITY     PTSUNNY   83  72  69 NE6       29.94F
NEBRASKA CITY  PTSUNNY   76  63  63 E6        29.97S
PLATTSMOUTH    PTSUNNY   76  64  65 E5        29.96F
$$

NEZ044-045-051>053-067-032000-
OMAHA AREA

CITY           SKY/WX    TMP DP  RH WIND       PRES   REMARKS
OMAHA EPPLEY   CLOUDY    78  64  61 SE7       29.97S
BLAIR          CLOUDY    75  64  68 CALM      29.98R
FREMONT        PTSUNNY   79  60  53 SE5       29.99S
MILLARD        PTSUNNY   78  64  62 CALM      29.99R
OFFUTT AFB     PTSUNNY   77  66  69 CALM      29.97R
PLATTSMOUTH    PTSUNNY   76  64  65 E5        29.96F
WAHOO          FAIR      78  65  64 CALM      29.99R
$$


USA.gov is the U.S. government's official web portal to all federal, state and local government web resources and services.